Lid_Strength_Index
7 7 7 7 7 7 8 8 9 9 9 8 8 8 4 4 4 4 4 4 5 4 3 3 3 2 2 1 1 1 1 1 1 0 -1 0 -1 0 -0 -1 -0 -0 -1 -0
8 8 8 8 7 7 7 7 7 7 8 6 6 5 5 4 4 4 4 4 4 3 3 3 3 2 2 1 1 1 1 1 1 1 0 1 -0 -0 -1 -1 -0 -0 0 1
9 7 8 9 8 7 7 6 6 9 7 6 6 5 5 5 4 5 4 4 3 3 3 2 2 2 2 2 1 1 1 1 1 1 1 0 0 1 1 1 1 1 1 1
12 10 13 7 5 6 7 6 6 5 5 5 5 4 4 4 4 4 4 3 3 3 2 2 2 2 2 1 1 2 2 2 1 1 1 1 1 1 1 1 1 1 1 1
10 11 8 8 7 8 9 9 7 6 5 4 4 4 4 3 3 3 3 3 3 2 2 1 2 2 2 2 2 2 2 2 1 1 2 1 2 1 1 1 1 1 0 0
9 11 13 9 8 6 6 12 8 7 5 5 4 7 6 4 3 3 2 2 2 2 2 2 2 2 2 2 2 2 2 2 1 1 1 2 1 1 0 0 1 1 1 0
11 10 9 7 6 5 12 10 6 5 5 5 6 5 4 3 3 2 2 2 2 2 2 2 2 2 2 2 3 2 1 1 1 1 1 1 1 0 0 1 1 1 1 0
13 12 13 5 6 9 7 5 5 5 4 5 4 4 3 3 3 3 3 2 2 2 3 2 2 2 2 3 2 1 1 1 1 1 1 1 1 1 1 1 1 1 1 1
9 10 5 4 5 4 4 5 4 4 4 4 4 4 3 3 3 3 3 2 2 2 3 2 2 2 3 2 1 1 1 1 1 1 1 1 1 1 1 1 2 2 2 2
7 6 6 5 4 4 3 4 3 3 3 3 4 4 4 3 3 3 3 3 2 2 3 3 2 2 2 1 1 1 2 2 1 1 1 1 1 1 1 1 1 1 1 2
6 5 5 5 4 4 4 4 4 3 3 3 3 3 4 3 3 3 2 2 2 3 3 3 2 2 2 1 1 2 2 2 2 1 1 2 4 2 4 6 5 1 3 3
7 4 5 5 4 3 4 4 3 4 4 3 3 3 3 4 3 3 3 2 2 2 3 2 2 2 2 1 1 2 2 2 2 1 1 1 3 5 8 8 9 8 7 5
5 4 4 4 4 3 3 4 3 3 3 4 4 3 2 2 2 3 2 3 3 3 2 2 2 2 1 1 1 1 2 2 1 2 1 2 1 4 6 5 8 8 9 9
4 4 5 4 4 3 3 2 2 3 2 2 3 3 2 2 2 2 3 2 2 3 2 2 2 2 1 1 1 1 1 4 1 1 1 1 1 2 3 4 4 4 6 6
4 4 4 3 3 3 3 3 3 3 2 2 2 2 3 2 2 2 2 2 2 3 2 2 2 2 1 1 1 1 1 1 1 1 1 1 1 1 2 2 3 3 3 6
3 3 3 4 4 4 3 3 3 3 3 2 2 2 2 1 2 2 2 2 3 3 3 2 2 2 1 1 1 1 1 2 2 1 1 1 1 2 1 1 2 3 4 4
4 4 4 4 4 4 4 3 3 3 2 2 2 1 1 2 2 2 2 2 2 2 2 2 3 1 1 1 1 1 1 1 1 1 1 1 1 2 1 1 2 2 3 3
2 2 3 3 4 4 4 3 3 3 2 1 1 1 2 2 3 3 2 2 2 2 2 1 1 2 1 1 1 0 1 1 1 1 1 1 1 1 2 2 2 3 3 5
2 3 3 4 4 4 4 3 3 2 1 1 1 2 2 2 2 2 2 2 2 3 3 1 4 3 1 1 1 1 1 2 1 1 1 2 1 2 2 2 3 3 3 5
4 3 4 4 4 4 4 3 2 2 1 1 1 2 2 2 2 2 2 3 2 2 1 1 1 2 2 1 2 1 2 2 1 1 1 1 1 1 2 4 3 3 3 4
4 4 4 4 4 3 4 3 2 2 1 1 2 2 2 2 2 2 3 4 2 2 1 4 1 3 2 3 1 2 1 2 2 2 1 2 2 3 3 2 2 3 4 4
4 4 4 5 5 4 4 2 2 1 1 1 1 2 2 2 2 2 2 2 2 5 3 2 2 3 3 3 2 2 2 2 2 3 3 2 3 3 3 3 3 3 3 3
5 5 4 3 4 4 3 4 2 2 2 2 2 2 2 2 2 3 4 2 1 4 2 2 4 5 5 4 2 2 3 4 4 5 5 4 4 3 3 3 3 2 2 2
5 4 4 3 3 4 4 4 3 2 2 1 1 1 2 2 2 1 1 3 5 5 2 3 4 6 5 2 2 2 3 3 5 5 5 6 4 2 3 3 2 2 2 3
4 3 4 4 4 4 4 4 2 2 2 2 2 1 1 1 2 1 1 1 5 4 2 5 6 5 2 2 2 2 2 2 4 4 3 4 4 3 2 1 2 2 1 0
4 4 4 3 3 3 3 3 3 3 3 3 2 1 1 1 1 1 1 2 2 4 2 4 3 3 2 2 3 2 2 3 3 3 3 3 3 3 2 2 1 1 0 -0
4 4 4 4 2 2 3 3 3 3 3 2 3 2 1 1 1 1 2 1 2 2 3 3 4 4 3 2 2 3 3 2 4 1 1 2 3 3 3 3 2 0 -0 -0